Back to catalog

ATLAS 5 CENTAUR DEB

AliveHEO
NORAD 55850·DEBRIS·🇺🇸 United States

Launched Oct 17, 2018 from Cape Canaveral Space Force Station

Loading…

Next Passes (next 24 hours)

TLE

AgingSource: Space-Track

Epoch: Aug 29, 2026, 13:48 UTC

1 55850U 18079HC  26241.57540005 -.00000142  00000-0  00000-0 0  9997
2 55850  13.7454  20.6537 4908658 341.7305   5.3780  1.79148153 26319

Track ATLAS 5 CENTAUR DEB in real time with AllMySat

Download on the App Store